sat.trackr.live / text

‹ back to catalog

STARLINK-2195

NORAD 47772 · 2021-017BC

PAYLOAD ACTIVE UNKNOWN

§ Identity

Operator
Country
US
Launch date
2021-03-04
Launch site
AFETR
Launch vehicle
Mass (kg)
RCS (m²)

Purposes: comms

External: N2YO · Heavens-Above · Gunter

§ Orbital elements

Epoch: 2026-05-25T05:16:57.878112Z

Period
94.01 min
Inclination
53.1585°
Eccentricity
0.0001945
Mean motion
15.31704488 rev/d
Perigee alt
469.4 km
Apogee alt
472.1 km
Semi-major
6,848.9 km
B*
4.4832e-5
RAAN
221.3574°
Arg perigee
86.8320°
Mean anomaly
273.2904°
Rev number
28,938

§ Raw data

STARLINK-21951 47772U 21017BC  26145.22011433  .00001026  00000+0  44832-4 0  99952 47772  53.1585 221.3574 0001945  86.8320 273.2904 15.31704488289384

JSON: /api/v1/satellites/47772 · /tle

For live sub-satellite position, see the globe view (requires WebGL).

§ Visibility from observer

Set your observer location to see the next 7 days of passes ≥ 10°. The values pass through the URL so the page stays shareable.

No JS? Fill the form by hand. The geolocation button needs JavaScript.